sat.trackr.live / text

‹ back to catalog

STARLINK-11098 [DTC]

NORAD 59760 · 2024-091H

PAYLOAD ACTIVE UNKNOWN

§ Identity

Operator
Country
US
Launch date
2024-05-14
Launch site
AFWTR
Launch vehicle
Mass (kg)
RCS (m²)

Purposes: comms

External: N2YO · Heavens-Above · Gunter

§ Orbital elements

Epoch: 2026-09-21T03:37:09.197760Z

Period
91.74 min
Inclination
53.1594°
Eccentricity
0.0001231
Mean motion
15.69710592 rev/d
Perigee alt
358.9 km
Apogee alt
360.6 km
Semi-major
6,737.9 km
B*
5.6872e-6
RAAN
322.6418°
Arg perigee
85.5698°
Mean anomaly
274.5460°
Rev number
13,621

§ Raw data

STARLINK-11098 [DTC]1 59760U 24091H   26264.15080090  .00000100  00000+0  56872-5 0  99992 59760  53.1594 322.6418 0001231  85.5698 274.5460 15.69710592136216

JSON: /api/v1/satellites/59760 · /tle

For live sub-satellite position, see the globe view (requires WebGL).

§ Visibility from observer

Set your observer location to see the next 7 days of passes ≥ 10°. The values pass through the URL so the page stays shareable.

No JS? Fill the form by hand. The geolocation button needs JavaScript.